User: anonymous   Login
Location: Unspecified
(0.0000°N, 0.0000°E)
Time: 18:56:25
(UTC+00:00)
Language:

HORYU 2 - Orbit

View from above orbital plane
View from above orbital plane
View from above satellite
View from above satellite

Ground track
Ground track

The orbit data is extracted from the following two-line orbital elements,

1 38340U 12025D   19341.38802175  .00000139  00000-0  28320-4 0  9992
2 38340  98.3093  24.9482 0010334 299.7923  60.2257 14.75783903406484
Epoch (UTC): 07 December 2019 09:18:45
Eccentricity: 0.0010334
inclination: 98.3093°
perigee height: 635 km
apogee height: 650 km
right ascension of ascending node: 24.9482°
argument of perigee: 299.7923°
revolutions per day: 14.75783903
mean anomaly at epoch: 60.2257°
orbit number at epoch: 40648

The dashed part of the orbit path shows where the satellite is in the earth's shadow,  

DLR